Weather in Tel Aviv

Israel     32°05′07″N   34°46′55″E
temp.,
°C
wind,
m/s
gust,
m/s
humid.,
%
clouds,
%
prec.,
mm/h
press.,
hPa
HPBL,
m
18 april, sun
sun1800:00+20nnw577410 0.0 1016114
03:00+19nnw22725 0.0 101536
06:00+19s33670 0.0 101443
09:00+23wnw32540 0.0 1016103
12:00+27nnw32410 0.0 1015279
15:00+26n56450 0.0 1014187
18:00+27nne57392 0.0 1013136
21:00+25nne45445 0.0 101454
19 april, mon
mon1900:00+27ene333373 0.0 101313
03:00+26ene3330100 0.0 101213
06:00+25sse4430100 0.0 101225
09:00+30sse3426100 0.0 1012128
12:00+34ssw2522100 0.0 10111610
15:00+33w352549 0.0 10091163
18:00+30nne4532100 0.0 100893
21:00+28nnw2333100 0.0 100921
20 april, tue
tue2000:00+27ese3333100 0.0 100919
03:00+24ssw2347100 0.0 100927
06:00+24sw2340100 0.0 100917
09:00+22nw226783 0.0 1012227
12:00+22w557217 0.0 1014419
15:00+22nw66655 0.0 1014516
18:00+20nnw56653 0.0 1014510
21:00+19nnw45730 0.0 1016341
21 april, wed
wed2100:00+18nw22720 0.0 1017252
03:00+18nnw33737 0.0 1017257
06:00+17n337469 0.0 1017315
09:00+19n336240 0.0 1018615
12:00+21nw5454100 0.0 1018619
15:00+21nnw6653100 0.0 1017608
18:00+20n675737 0.0 1017569
21:00+18n456698 0.0 1018357
22 april, thu
thu2200:00+18nne3470100 0.0 1019339
03:00+17nne3373100 0.0 1018260
06:00+16ne337577 0.0 1018277
09:00+19n34625 0.0 1018490
12:00+21nnw55532 0.0 1018583
15:00+21nnw66511 0.0 1017524
18:00+20nnw67631 0.0 1017503
21:00+19n45731 0.0 1018309